This is the latest recevied weather packets stored in our database for station/object AC8JV. If no packets are shown the sender has not sent any weather packets the latest 10 day(s).
| Time | Temp. | Humidity | Pressure | Rain* | Wind** | Luminosity | Snow |
|---|---|---|---|---|---|---|---|
| 1777692085 | 2.22° C | 66% | 1018.9 hPa | 0 mm | - | - | - |
| 1777691410 | 2.22° C | 64% | 1018.9 hPa | 0 mm | - | - | - |
| 1777690805 | 2.78° C | 63% | 1018.9 hPa | 0 mm | - | - | - |
| 1777690205 | 2.78° C | 62% | 1018.9 hPa | 0 mm | - | - | - |
| 1777689601 | 2.78° C | 60% | 1018.9 hPa | 0 mm | - | - | - |
| 1777689002 | 3.33° C | 59% | 1018.9 hPa | 0 mm | - | - | - |
| 1777688399 | 3.33° C | 59% | 1018.8 hPa | 0 mm | - | - | - |
| 1777687829 | 3.33° C | 57% | 1018.7 hPa | 0 mm | - | - | - |
| 1777687233 | 3.89° C | 57% | 1018.4 hPa | 0 mm | - | - | - |
| 1777686603 | 3.89° C | 57% | 1018.3 hPa | 0 mm | - | - | - |
| 1777686026 | 3.89° C | 58% | 1018.2 hPa | 0 mm | - | - | - |
| 1777685437 | 3.89° C | 60% | 1018.2 hPa | 0 mm | - | - | - |
| 1777684803 | 4.44° C | 59% | 1018.1 hPa | 0 mm | - | - | - |
| 1777684229 | 4.44° C | 58% | 1018.1 hPa | 0 mm | - | - | - |
| 1777683612 | 4.44° C | 58% | 1017.9 hPa | 0 mm | - | - | - |
| 1777683010 | 4.44° C | 56% | 1017.7 hPa | 0 mm | - | - | - |
| 1777682402 | 4.44° C | 56% | 1018 hPa | 0 mm | - | - | - |
| 1777681808 | 4.44° C | 56% | 1018 hPa | 0 mm | - | - | - |
| 1777681207 | 4.44° C | 57% | 1017.9 hPa | 0 mm | - | - | - |
| 1777680599 | 4.44° C | 56% | 1017.9 hPa | 0 mm | - | - | - |
| 1777680000 | 5° C | 54% | 1017.9 hPa | 0 mm | - | - | - |
| 1777679401 | 5.56° C | 51% | 1017.8 hPa | 0 mm | - | - | - |
| 1777678823 | 6.11° C | 50% | 1017.7 hPa | 0 mm | - | - | - |
| 1777678217 | 6.11° C | 51% | 1017.6 hPa | 0 mm | - | - | - |
| 1777677599 | 6.67° C | 49% | 1017.6 hPa | 0 mm | - | - | - |
* Rain latest hour (hover to see other rain measurements)
** Current wind speed in m/s (hover to see current wind gust speed)